Location: Melbourne
(37.8170°S, 144.9670°E)
Time: 20:23:08
(UTC+10:00)

Vanguard 1 Rocket - Visible Passes

Search period start: 25 April 2017 00:00
Search period end: 05 May 2017 00:00
Orbit: 650 x 4227 km, 34.3° (Epoch: 23 April)

Date Brightness Start Highest point End Pass type
(mag) Time Alt. Az. Time Alt. Az. Time Alt. Az.
25 Apr 10.6 18:49:37 10° W 19:15:28 81° N 19:31:38 28° E visible
25 Apr 10.1 21:22:22 10° W 21:48:15 69° NNW 21:48:55 69° NNW visible
25 Apr 11.2 23:58:02 10° W 00:06:11 22° W 00:06:11 22° W visible
26 Apr 10.8 17:36:02 10° WNW 17:59:45 77° NNE 18:24:18 10° E visible
26 Apr 10.1 20:07:02 10° W 20:33:40 78° NNW 20:41:37 52° ENE visible
26 Apr 10.6 22:41:09 10° WSW 22:58:54 43° WNW 22:58:54 43° WNW visible
27 Apr 10.6 18:52:30 10° W 19:18:12 81° N 19:34:23 28° ENE visible
27 Apr 10.2 21:25:08 10° W 21:50:44 63° NNW 21:51:40 63° NNW visible
28 Apr 11.3 00:01:27 10° W 00:08:56 20° W 00:08:56 20° W visible
28 Apr 10.8 17:38:55 10° WNW 18:02:24 80° N 18:27:10 10° E visible
28 Apr 10.2 20:09:53 10° W 20:36:16 74° NNW 20:44:27 51° NE visible
28 Apr 10.8 22:44:04 10° WSW 23:01:44 39° WNW 23:01:44 39° WNW visible
29 Apr 10.6 18:55:26 10° W 19:20:54 80° N 19:37:18 28° ENE visible
29 Apr 10.3 21:27:56 10° WSW 21:53:02 57° NNW 21:54:35 56° NNW visible
30 Apr 11.4 00:05:26 10° W 00:11:53 17° W 00:11:53 17° W visible
30 Apr 10.8 17:41:52 10° W 18:05:06 81° N 18:30:12 10° E visible
30 Apr 10.3 20:12:44 10° W 20:38:47 69° NNW 20:47:30 48° NE visible
30 Apr 10.9 22:47:11 10° WSW 23:04:47 34° WNW 23:04:47 34° WNW visible
01 May 10.7 18:58:23 10° W 19:23:33 77° NNW 19:40:28 27° ENE visible
01 May 10.5 21:30:49 10° WSW 21:55:11 50° NW 21:57:47 49° NNW visible
02 May 11.5 00:10:24 10° W 00:15:05 14° WNW 00:15:05 14° WNW visible
02 May 10.8 17:44:53 10° W 18:07:49 81° N 18:33:10 10° E visible
02 May 10.5 20:15:37 10° W 20:41:09 64° NNW 20:50:50 43° NNE visible
02 May 11.0 22:50:38 10° W 23:08:09 29° WNW 23:08:09 29° WNW visible
03 May 10.7 19:01:21 10° W 19:26:07 74° NNW 19:43:59 24° ENE visible
03 May 10.7 21:33:49 10° WSW 21:57:12 44° NW 22:01:19 41° NNW visible
04 May 11.7 00:18:09 10° WNW 00:18:39 10° WNW 00:18:39 10° WNW visible
04 May 10.8 17:47:56 10° W 18:10:32 80° N 18:36:02 10° ENE visible
04 May 10.7 20:18:32 10° WSW 20:43:23 57° NNW 20:54:35 36° NNE visible
04 May 11.2 22:54:36 10° W 23:11:38 24° NW 23:11:55 24° NW visible
